Location: Allie Creek
(37.5926°N, 89.8526°W)
Time: 11:43:11
(UTC+00:00)

USA 281 - Pass Details

Date: 26 September 2023
Orbit: 1077 x 1081 km, 106.0° (Epoch: 19 November)

Event Time Altitude Azimuth Distance (km) Brightness Sun altitude
Rises 08:47:26 0° 14° (NNE) 3,887 6.7 -35.5°
Reaches altitude 10° 08:50:05 10° 8° (N) 2,928 5.9 -35.1°
Enters shadow 08:53:50 31° 343° (NNW) 1,800 4.4 -34.5°
